This is the latest recevied weather packets stored in our database for station/object JR5YHL-13. If no packets are shown the sender has not sent any weather packets the latest 10 day(s).
| Time | Temp. | Humidity | Pressure | Rain* | Wind** | Luminosity | Snow |
|---|---|---|---|---|---|---|---|
| 1778063214 | 20° C | 82% | 1016.8 hPa | 0 mm | - | - | - |
| 1778062616 | 20° C | 81% | 1016.7 hPa | 0 mm | - | - | - |
| 1778062019 | 20.56° C | 79% | 1016.6 hPa | 0 mm | - | - | - |
| 1778061421 | 21.11° C | 75% | 1016.6 hPa | 0 mm | - | - | - |
| 1778060823 | 21.11° C | 73% | 1016.6 hPa | 0 mm | - | - | - |
| 1778060226 | 21.11° C | 72% | 1016.6 hPa | 0 mm | - | - | - |
| 1778059628 | 21.67° C | 70% | 1016.5 hPa | 0 mm | - | - | - |
| 1778059030 | 21.67° C | 70% | 1016.7 hPa | 0 mm | - | - | - |
| 1778058433 | 21.67° C | 67% | 1016.4 hPa | 0 mm | - | - | - |
| 1778057835 | 22.22° C | 67% | 1016.6 hPa | 0 mm | - | - | - |
| 1778057237 | 22.22° C | 66% | 1016.5 hPa | 0 mm | - | - | - |
| 1778056640 | 22.22° C | 67% | 1016.4 hPa | 0 mm | - | - | - |
| 1778056042 | 22.22° C | 66% | 1016.3 hPa | 0 mm | - | - | - |
| 1778055444 | 22.22° C | 66% | 1016.3 hPa | 0 mm | - | - | - |
| 1778054847 | 22.78° C | 63% | 1016.4 hPa | 0 mm | - | - | - |
| 1778054249 | 22.78° C | 60% | 1016.2 hPa | 0 mm | - | - | - |
| 1778053651 | 23.33° C | 56% | 1016.4 hPa | 0 mm | - | - | - |
| 1778053054 | 23.33° C | 58% | 1016.6 hPa | 0 mm | - | - | - |
| 1778052456 | 23.33° C | 56% | 1016.7 hPa | 0 mm | - | - | - |
| 1778051859 | 23.89° C | 57% | 1016.7 hPa | 0 mm | - | - | - |
| 1778051261 | 24.44° C | 57% | 1016.8 hPa | 0 mm | - | - | - |
| 1778050663 | 23.89° C | 60% | 1016.7 hPa | 0 mm | - | - | - |
| 1778050065 | 23.89° C | 60% | 1016.9 hPa | 0 mm | - | - | - |
| 1778049468 | 23.89° C | 58% | 1016.8 hPa | 0 mm | - | - | - |
| 1778048870 | 24.44° C | 57% | 1017 hPa | 0 mm | - | - | - |
* Rain latest hour (hover to see other rain measurements)
** Current wind speed in m/s (hover to see current wind gust speed)